Kleine Brogel, Belgium

2:00 AM CEST on April 25, 2018 (GMT +0200)
Kleine-Brogel Air Base

Weather History for EBBL - December, 2012

Change the Weather History Date:

Friday, December 21, 2012

  Actual Average Record
Temperature  
Mean Temperature 42 °F -  
Max Temperature 49 °F 40 °F 52 °F (2015)
Min Temperature 36 °F 33 °F 14 °F (2010)
Degree Days  
Heating Degree Days 22    
Moisture  
Dew Point 43 °F    
Average Humidity 94    
Maximum Humidity 100    
Minimum Humidity 87    
Precipitation  
Precipitation 0.01 in - - ()
Sea Level Pressure  
Sea Level Pressure 29.82 in    
Wind  
Wind Speed 5 mph ()    
Max Wind Speed 9 mph    
Max Gust Speed -    
Visibility 3.0 miles    
Events Rain    
Averages and records for this station are not official NWS values.
T = Trace of Precipitation, MM = Missing Value Source: Averaged Metar Reports

Daily Weather History Graph

Daily Weather History Graph

Search for Another Location

Airport or City:

Astronomy

Dec. 21, 2012 Rise Set
Actual Time 8:39 AM CET 4:32 PM CET
Civil Twilight 7:59 AM CET 5:12 PM CET
Nautical Twilight 7:17 AM CET 5:55 PM CET
Astronomical Twilight 6:36 AM CET 6:36 PM CET
Moon 12:40 PM CET (12/21) 1:39 AM CET (12/21)
Length of Visible Light 9h 12m
Length of Day
7h 53m
Waxing Gibbous, 62% of the Moon is Illuminated
Dec 21
Waxing Gibbous
Dec 28
Full
Jan 5
Last Quarter
Jan 11
New
Jan 19
First Quarter

Hourly Weather History & Observations

Time (CET) Temp. Windchill Dew Point Humidity Pressure Visibility Wind Dir Wind Speed Gust Speed Precip Events Conditions
12:07 AM 37.4 °F 32.8 °F 35.6 °F 93% 29.74 in 1.9 mi East 5.8 mph - N/A Rain Light Rain
12:22 AM 37.4 °F 34.9 °F 35.6 °F 93% 29.74 in 1.9 mi Variable 3.5 mph - N/A Rain Light Rain
12:25 AM 37.4 °F 34.9 °F 35.6 °F 93% 29.74 in 1.9 mi Variable 3.5 mph - N/A Rain Light Rain
12:37 AM 37.4 °F 34.9 °F 35.6 °F 93% 29.74 in 1.9 mi Variable 3.5 mph - N/A Rain Light Rain
12:56 AM 37.4 °F 33.8 °F 37.4 °F 100% 29.74 in 1.9 mi East 4.6 mph - N/A Rain Light Rain
1:17 AM 37.4 °F 33.8 °F 37.4 °F 100% 29.74 in 1.9 mi East 4.6 mph - N/A   Mostly Cloudy
1:25 AM 37.4 °F 34.9 °F 37.4 °F 100% 29.71 in 1.9 mi Variable 3.5 mph - N/A   Mostly Cloudy
1:32 AM 37.4 °F 33.8 °F 35.6 °F 93% 29.71 in 1.9 mi East 4.6 mph - N/A   Mostly Cloudy
1:37 AM 37.4 °F 34.9 °F 35.6 °F 93% 29.74 in 1.9 mi Variable 3.5 mph - N/A   Mostly Cloudy
1:55 AM 37.4 °F 34.9 °F 37.4 °F 100% 29.74 in 1.9 mi Variable 3.5 mph - N/A   Mostly Cloudy
2:25 AM 37.4 °F 34.9 °F 37.4 °F 100% 29.74 in 1.9 mi Variable 3.5 mph - N/A   Mostly Cloudy
3:02 AM 37.4 °F - 37.4 °F 100% 29.74 in 1.9 mi Variable 2.3 mph - N/A   Mostly Cloudy
3:25 AM 39.2 °F - 37.4 °F 93% 29.74 in 1.9 mi Variable 1.2 mph - N/A   Mostly Cloudy
3:55 AM 39.2 °F - 39.2 °F 100% 29.74 in 1.9 mi Variable 2.3 mph - N/A   Mostly Cloudy
4:00 AM 39 °F - 38 °F 97% 29.75 in 2 mi 2.2 mph - -   Mist
4:25 AM 41.0 °F - 39.2 °F 93% 29.71 in 1.2 mi Variable 1.2 mph - N/A Rain Rain
4:54 AM 42.8 °F 40.1 °F 42.8 °F 100% 29.71 in 2.8 mi SSW 4.6 mph - N/A   Mostly Cloudy
4:55 AM 42.8 °F 40.1 °F 42.8 °F 100% 29.71 in 2.8 mi SW 4.6 mph - N/A   Mostly Cloudy
5:02 AM 42.8 °F 40.1 °F 42.8 °F 100% 29.71 in 2.8 mi South 4.6 mph - N/A   Mostly Cloudy
5:25 AM 44.6 °F 40.7 °F 44.6 °F 100% 29.71 in 2.8 mi SW 6.9 mph - N/A   Mostly Cloudy
5:55 AM 44.6 °F 40.7 °F 44.6 °F 100% 29.71 in - SSW 6.9 mph - N/A   Scattered Clouds
6:25 AM 44.6 °F 40.7 °F 44.6 °F 100% 29.74 in 2.8 mi SW 6.9 mph - N/A   Mostly Cloudy
6:55 AM 44.6 °F 41.4 °F 44.6 °F 100% 29.74 in - SW 5.8 mph - N/A   Mostly Cloudy
7:00 AM 45 °F - 44 °F 97% 29.75 in 3 mi SW 6.7 mph - -   Mist
7:25 AM 44.6 °F 40.7 °F 44.6 °F 100% 29.74 in - SSW 6.9 mph - N/A   Mostly Cloudy
7:55 AM 44.6 °F 41.4 °F 44.6 °F 100% 29.74 in 2.5 mi SW 5.8 mph - N/A Rain Light Rain
8:25 AM 44.6 °F 41.4 °F 44.6 °F 100% 29.74 in 2.5 mi SW 5.8 mph - N/A Rain Light Rain
8:53 AM 44.6 °F 40.7 °F 44.6 °F 100% 29.77 in 2.2 mi SW 6.9 mph - N/A   Overcast
8:55 AM 44.6 °F 40.7 °F 44.6 °F 100% 29.77 in 2.2 mi SW 6.9 mph - N/A   Overcast
9:25 AM 46.4 °F 43.5 °F 44.6 °F 93% 29.77 in 2.2 mi WSW 5.8 mph - N/A   Overcast
10:00 AM 46 °F - 45 °F 94% 29.81 in 2 mi SW 4.5 mph - -   Partly Cloudy
10:25 AM 46.4 °F 44.3 °F 44.6 °F 93% 29.80 in 2.2 mi SW 4.6 mph - N/A   Overcast
10:55 AM 46.4 °F 43.5 °F 44.6 °F 93% 29.80 in 2.2 mi SW 5.8 mph - N/A   Overcast
11:25 AM 46.4 °F 43.5 °F 44.6 °F 93% 29.83 in 2.2 mi SW 5.8 mph - N/A   Overcast
11:53 AM 46.4 °F 44.3 °F 44.6 °F 93% 29.83 in 2.5 mi SW 4.6 mph - N/A   Overcast
11:55 AM 46.4 °F 44.3 °F 46.4 °F 100% 29.83 in 2.5 mi WSW 4.6 mph - N/A   Overcast
12:25 PM 48.2 °F - 46.4 °F 93% 29.83 in 2.8 mi WSW 5.8 mph - N/A   Mostly Cloudy
12:55 PM 48.2 °F - 44.6 °F 87% 29.83 in 3.1 mi WSW 5.8 mph - N/A   Mostly Cloudy
1:00 PM 48 °F - 46 °F 88% 29.85 in 3 mi WSW 6.7 mph - -   Mist
1:25 PM 48.2 °F - 46.4 °F 93% 29.83 in 3.7 mi WSW 8.1 mph - N/A   Mostly Cloudy
1:50 PM 48.2 °F - 46.4 °F 93% 29.86 in 4.3 mi WSW 9.2 mph - N/A   Mostly Cloudy
1:55 PM 48.2 °F - 44.6 °F 87% 29.86 in 4.3 mi WSW 8.1 mph - N/A   Mostly Cloudy
2:25 PM 48.2 °F - 44.6 °F 87% 29.86 in 4.3 mi WSW 5.8 mph - N/A   Mostly Cloudy
2:50 PM 48.2 °F - 44.6 °F 87% 29.86 in 4.3 mi WSW 5.8 mph - N/A   Mostly Cloudy
2:55 PM 48.2 °F - 44.6 °F 87% 29.86 in 4.3 mi WSW 5.8 mph - N/A   Mostly Cloudy
3:13 PM 48.2 °F - 44.6 °F 87% 29.86 in 6.2 mi SW 5.8 mph - N/A   Mostly Cloudy
3:25 PM 48.2 °F - 44.6 °F 87% 29.86 in 6.2 mi SW 4.6 mph - N/A   Mostly Cloudy
3:55 PM 46.4 °F - 44.6 °F 93% 29.86 in 6.2 mi Variable 2.3 mph - N/A   Mostly Cloudy
4:00 PM 47 °F - 45 °F 89% 29.89 in 6 mi 2.2 mph - -   Mostly Cloudy
4:25 PM 46.4 °F - 44.6 °F 93% 29.89 in 6.2 mi Variable 2.3 mph - N/A   Mostly Cloudy
4:51 PM 46.4 °F 45.2 °F 44.6 °F 93% 29.89 in 3.7 mi Variable 3.5 mph - N/A   Mostly Cloudy
4:55 PM 46.4 °F 45.2 °F 44.6 °F 93% 29.89 in 3.1 mi Variable 3.5 mph - N/A   Mostly Cloudy
5:25 PM 46.4 °F 44.3 °F 44.6 °F 93% 29.89 in 3.1 mi SSW 4.6 mph - N/A   Mostly Cloudy
5:55 PM 46.4 °F 43.5 °F 44.6 °F 93% 29.89 in 3.1 mi SSW 5.8 mph - N/A   Mostly Cloudy
6:25 PM 46.4 °F 43.5 °F 44.6 °F 93% 29.92 in 3.1 mi SSW 5.8 mph - N/A   Mostly Cloudy
6:55 PM 46.4 °F 42.9 °F 44.6 °F 93% 29.92 in 3.1 mi SW 6.9 mph - N/A   Mostly Cloudy
7:00 PM 47 °F - 45 °F 91% 29.94 in 3 mi SW 6.7 mph - -   Partly Cloudy
7:03 PM 46.4 °F 42.9 °F 44.6 °F 93% 29.92 in 3.1 mi SW 6.9 mph - N/A   Mostly Cloudy
7:25 PM 46.4 °F 42.4 °F 44.6 °F 93% 29.95 in 2.8 mi SW 8.1 mph - N/A   Mostly Cloudy
7:55 PM 46.4 °F 43.5 °F 44.6 °F 93% 29.95 in 3.1 mi WSW 5.8 mph - N/A   Mostly Cloudy
8:25 PM 46.4 °F 42.9 °F 44.6 °F 93% 29.95 in 3.1 mi SW 6.9 mph - N/A   Mostly Cloudy
8:55 PM 46.4 °F 42.9 °F 44.6 °F 93% 29.95 in 3.1 mi SW 6.9 mph - N/A   Mostly Cloudy
9:25 PM 46.4 °F 42.9 °F 44.6 °F 93% 29.98 in 3.1 mi SW 6.9 mph - N/A   Mostly Cloudy
9:38 PM 46.4 °F 42.9 °F 44.6 °F 93% 29.98 in 3.1 mi SW 6.9 mph - N/A   Mostly Cloudy
9:55 PM 46.4 °F 42.4 °F 44.6 °F 93% 29.98 in 3.1 mi SW 8.1 mph - N/A   Mostly Cloudy
10:00 PM 46 °F - 44 °F 92% 29.99 in 3 mi SW 6.7 mph - -   Mist
10:25 PM 46.4 °F 42.9 °F 44.6 °F 93% 29.98 in 3.7 mi SW 6.9 mph - N/A   Mostly Cloudy
10:55 PM 46.4 °F 42.4 °F 44.6 °F 93% 29.98 in 3.7 mi SW 8.1 mph - N/A   Mostly Cloudy